GFSNE_250_spd_000.txt.gz
Wind_Speed
81 86 92 99 116 124 128 142 150 144 146 145 140 139 135 131 126 128 125 120 117 112 105 102 100 95 97 97 92 91 86 79 83 82 75 70 66 61
76 82 88 92 99 108 120 130 134 150 154 152 151 149 146 141 135 129 125 126 125 119 113 115 112 108 104 103 98 97 92 83 86 90 84 75 73 71
73 77 82 88 92 97 103 112 122 128 133 155 162 157 155 152 146 143 137 130 124 120 119 113 117 116 116 111 106 100 99 91 90 90 90 85 82 80
72 74 77 83 86 91 95 98 103 112 118 128 142 154 165 169 157 153 145 141 135 130 126 118 115 117 118 118 117 113 104 98 97 91 96 91 88 89
70 72 75 79 80 84 89 90 94 98 101 102 112 121 133 143 158 171 162 157 149 144 142 138 130 124 121 118 122 120 116 111 103 96 101 98 94 93
68 71 74 75 76 79 82 85 89 91 94 94 94 102 107 114 128 140 153 169 169 160 154 152 147 141 130 126 128 122 116 115 109 103 103 101 99 98
67 68 70 71 72 74 75 80 81 84 87 90 92 94 98 106 112 117 121 129 146 164 169 168 164 150 146 140 141 130 123 118 119 111 108 106 103 104
62 63 63 65 66 67 67 71 74 76 78 82 83 87 89 95 104 111 111 110 107 115 124 130 140 158 158 149 149 146 136 131 123 120 115 110 109 110
56 56 57 58 58 59 61 62 64 66 70 72 76 81 83 87 94 98 102 102 99 106 111 113 123 130 137 158 159 159 150 140 132 129 120 118 119 116
50 49 50 51 51 52 55 56 58 60 61 63 66 71 73 77 83 90 93 96 97 101 105 102 109 111 114 117 133 159 162 148 140 137 132 128 123 120
46 45 45 47 48 47 49 51 53 57 57 60 63 65 66 67 73 80 85 89 92 94 98 100 101 102 106 112 127 144 148 149 146 139 136 133 129 125
43 42 42 42 42 42 42 43 46 49 51 54 59 61 63 64 67 69 77 79 85 89 97 94 98 101 103 105 114 133 143 144 138 133 133 133 129 128
39 38 37 37 37 37 37 38 41 44 46 47 51 55 58 60 65 66 70 73 78 84 88 88 93 100 101 101 111 119 131 139 136 129 128 129 132 131
34 33 33 31 33 33 33 34 35 38 39 41 43 46 52 56 59 59 65 70 74 77 83 84 90 97 99 102 110 116 122 131 135 131 133 132 135 129
31 29 28 27 27 28 28 27 29 32 34 38 41 43 48 51 51 52 57 66 72 75 78 75 85 92 98 102 109 112 117 125 131 134 133 133 129 122
28 28 25 25 26 26 25 25 26 28 30 34 37 40 42 45 47 47 54 62 67 70 69 72 77 86 94 101 107 109 109 116 126 133 134 134 131 127
29 25 25 24 23 21 20 21 23 23 26 30 32 34 35 37 39 45 51 55 59 61 65 68 71 80 90 99 106 107 106 113 125 132 136 136 135 133
24 24 24 21 18 17 17 17 18 19 22 26 27 29 30 31 34 39 43 48 52 55 58 61 65 74 83 94 100 105 105 109 119 126 135 138 137 136
22 21 22 18 16 15 14 14 15 16 18 21 22 24 26 29 31 33 40 43 47 50 52 56 60 67 74 83 93 98 99 105 113 121 132 135 138 139
19 22 20 17 16 14 11 10 11 13 14 15 18 20 23 25 28 31 35 38 42 45 50 52 54 60 67 72 82 88 94 103 106 114 123 130 137 137
18 19 14 16 15 13 12 10 8 9 10 11 13 16 19 23 24 27 32 36 38 41 46 49 53 56 63 71 79 81 87 96 104 108 111 121 127 133
16 16 14 12 11 10 9 8 9 9 9 10 10 12 15 19 22 25 30 34 38 41 44 47 51 54 59 66 70 76 82 88 95 103 108 112 119 123
15 15 13 12 13 13 10 9 7 8 9 8 9 10 12 16 19 23 27 33 36 38 41 42 46 53 58 62 67 73 78 82 91 97 102 112 115 118

GFSNE_250_spd_006.txt.gz
Wind_Speed
79 72 67 64 65 67 69 69 73 78 88 97 98 100 101 103 113 124 126 124 120 118 114 112 106 102 102 101 93 92 97 88 90 84 79 76 71 70
73 68 68 67 65 65 67 69 71 74 80 90 94 100 102 104 109 117 128 129 126 122 121 114 114 112 110 105 103 98 94 90 104 91 86 86 80 78
71 68 65 64 62 62 61 64 68 70 76 86 90 96 99 102 107 110 122 132 132 129 126 123 119 119 114 112 109 106 104 104 104 94 95 93 90 86
68 63 60 58 58 58 57 58 62 67 71 81 89 93 96 100 103 107 113 126 131 133 130 126 126 126 127 122 119 115 112 110 108 105 95 95 95 90
62 58 57 55 56 57 57 56 59 62 67 73 83 88 93 97 100 103 108 114 126 131 134 133 129 127 127 123 121 118 113 112 113 112 104 103 107 99
59 56 55 55 55 57 57 58 59 60 63 67 75 82 86 91 96 99 102 107 113 122 128 134 137 133 130 125 120 117 114 113 116 116 110 107 111 107
58 55 54 54 55 56 57 60 59 60 62 64 70 79 84 88 88 92 95 100 103 108 117 123 132 138 137 132 124 120 117 118 115 118 117 115 115 114
55 55 52 50 50 50 52 55 56 57 61 64 68 72 81 85 88 88 89 94 94 96 101 109 115 126 138 138 135 132 126 122 121 121 118 117 123 120
51 49 49 48 47 47 48 51 53 55 58 60 63 69 76 81 86 87 89 90 92 95 95 100 107 113 120 132 137 137 135 133 126 122 119 121 122 127
48 46 44 44 43 44 46 48 50 53 55 56 58 64 70 75 79 83 85 87 88 92 95 96 101 104 112 117 124 133 139 138 135 132 127 123 123 123
42 40 41 42 41 40 43 45 46 48 48 51 55 59 62 68 73 77 82 84 88 93 93 94 99 101 104 108 115 122 132 142 143 138 135 132 128 127
39 37 36 38 38 37 39 43 45 43 46 49 52 54 58 62 66 70 76 80 85 89 92 94 98 99 101 103 105 111 115 124 137 148 146 139 136 134
37 34 32 32 34 35 36 39 41 41 43 45 47 50 53 57 61 64 69 72 77 82 87 90 94 96 95 98 98 97 103 108 115 126 139 149 148 146
33 32 31 30 30 31 32 34 36 37 38 40 43 46 48 52 55 59 62 65 70 76 80 82 89 91 94 96 95 94 95 100 105 110 118 129 147 153
30 30 29 27 26 27 28 30 32 33 36 38 41 43 45 47 49 53 58 61 63 67 72 77 82 86 87 89 91 92 93 95 99 101 106 111 121 131
29 28 26 25 23 24 24 26 28 30 31 33 35 38 42 44 46 49 52 55 58 61 66 71 73 74 77 81 84 87 88 90 93 95 99 105 110 112
27 26 24 23 22 22 22 22 20 22 25 29 32 34 36 39 42 45 47 49 52 57 61 65 70 71 72 71 72 74 79 84 89 93 95 98 102 104
25 24 22 22 20 20 20 17 18 20 21 22 23 26 30 34 37 39 40 44 48 51 54 57 60 61 64 64 67 68 71 77 81 87 89 92 98 98
22 21 21 20 19 19 16 18 19 21 21 21 21 22 24 27 30 33 35 38 42 45 48 51 52 52 54 58 62 66 69 70 71 77 82 87 92 95
21 18 19 18 18 19 18 17 17 17 18 17 17 18 20 23 26 27 29 32 35 39 42 43 44 46 49 50 54 61 63 65 67 70 77 82 89 94
19 17 17 18 18 18 20 18 16 15 14 15 15 15 16 18 22 24 26 27 30 34 36 38 40 42 45 48 53 54 56 62 65 67 72 76 83 88
17 17 16 17 17 17 16 16 16 16 12 10 12 13 14 15 17 20 23 24 26 28 31 34 37 39 42 46 47 47 52 56 61 65 66 70 75 81
15 17 17 17 17 15 16 15 15 16 15 12 10 12 12 13 15 17 19 22 23 25 28 30 33 36 40 43 42 44 48 51 56 58 60 65 71 77

GFSNE_250_spd_009.txt.gz
Wind_Speed
83 81 78 76 74 73 73 75 73 74 77 88 94 92 90 92 99 103 104 106 108 122 124 120 121 116 110 111 108 106 105 103 98 90 88 88 83 82
77 76 75 73 71 71 70 70 71 69 72 79 87 90 88 89 95 101 102 107 108 115 127 126 124 125 120 114 113 114 109 108 103 99 97 95 93 90
78 74 72 71 67 66 66 67 69 71 71 80 84 88 86 87 90 95 99 103 107 112 125 129 128 132 126 117 114 117 116 112 111 105 104 99 102 98
74 75 73 69 66 65 65 64 64 67 68 75 83 89 88 89 89 92 96 100 105 110 115 131 133 135 131 125 119 118 118 117 114 111 110 106 103 106
76 74 71 69 67 65 63 62 62 61 63 68 77 83 86 87 89 90 93 98 103 107 114 118 133 136 134 131 124 119 118 122 118 114 113 111 113 109
73 70 66 63 61 59 58 59 60 59 61 63 71 77 82 85 85 88 91 93 99 106 111 117 123 139 138 135 127 119 120 118 116 120 116 117 115 111
66 62 58 55 55 55 55 58 57 59 61 61 65 71 77 82 81 84 87 91 93 100 108 116 122 129 142 140 132 126 125 125 121 126 123 121 119 115
58 55 53 52 52 54 55 56 58 57 59 60 63 67 71 77 81 80 83 85 88 93 101 109 117 123 133 142 141 133 129 127 128 124 128 125 124 119
51 52 52 52 51 51 52 54 55 55 56 56 59 63 68 72 76 79 79 80 84 88 92 99 106 114 123 133 142 142 136 132 131 129 128 131 129 124
47 49 50 50 47 47 48 48 49 50 49 50 54 60 65 69 72 76 79 77 79 85 87 91 98 104 113 121 133 141 142 140 137 132 134 134 133 130
46 45 46 46 44 43 46 47 47 45 45 48 52 56 61 65 68 71 76 77 79 82 84 85 93 96 103 109 118 130 143 146 143 139 135 136 141 138
42 42 41 42 42 41 43 43 42 41 41 42 46 51 56 59 61 66 70 74 79 79 79 81 89 92 96 100 106 115 129 139 146 145 143 140 141 144
39 38 37 37 39 38 39 39 38 38 38 38 41 45 49 52 54 58 63 67 73 77 78 79 82 87 91 97 102 106 113 123 136 144 149 146 143 142
37 36 33 34 32 31 35 36 37 38 37 35 36 41 44 49 51 53 57 62 68 73 75 77 80 81 85 93 96 102 106 110 117 130 141 151 150 147
34 32 31 31 29 27 31 31 32 33 33 33 34 36 39 42 45 50 52 55 60 65 70 74 77 80 82 86 90 95 98 102 106 112 120 133 137 154
31 29 29 27 27 28 26 28 28 29 31 31 30 31 34 38 41 42 47 50 54 58 61 65 70 74 78 81 83 86 89 91 98 103 107 114 122 125
29 28 27 25 25 25 25 25 25 27 28 28 29 29 30 32 37 39 41 44 50 52 55 59 62 65 69 74 79 81 81 82 91 94 99 104 109 116
27 26 24 24 23 23 23 23 22 21 21 23 24 23 26 29 32 33 37 41 42 45 50 54 56 59 64 67 71 74 75 80 83 85 88 93 100 107
25 24 23 23 21 21 20 20 20 20 21 21 21 22 22 23 26 29 30 33 37 41 44 47 50 55 58 61 65 68 70 72 73 77 83 86 90 99
24 22 23 22 22 20 19 19 20 21 21 20 20 20 21 21 22 24 26 28 30 33 37 39 44 48 52 55 56 58 61 65 70 73 76 79 83 87
22 21 22 22 21 20 19 20 21 19 19 19 20 19 19 20 21 21 23 24 27 29 32 34 39 42 46 49 51 52 55 60 66 68 68 68 73 81
20 21 21 21 21 19 20 20 21 19 17 16 17 17 17 17 19 20 21 23 24 26 29 32 35 38 40 44 47 49 52 56 59 62 62 65 69 75
19 20 21 21 21 20 21 21 19 19 18 18 17 16 17 17 15 17 20 21 23 25 27 29 32 35 38 40 43 47 51 55 57 57 58 61 67 71

GFSNE_250_spd_015.txt.gz
Wind_Speed
82 79 76 73 73 72 72 73 74 75 79 86 89 92 94 97 99 103 105 110 116 115 117 118 119 117 116 118 118 121 124 119 115 109 107 104 98 92
78 77 75 75 75 73 73 73 73 73 72 81 86 91 93 95 98 98 98 98 102 108 112 117 118 119 119 119 120 121 123 125 127 122 120 108 96 98
77 76 75 74 74 74 74 73 71 71 71 74 80 84 90 93 97 99 98 96 95 97 102 110 114 116 119 121 123 124 122 127 133 131 128 118 113 103
75 74 74 73 74 74 73 73 72 71 68 72 80 83 86 92 94 96 99 98 94 92 92 98 105 110 114 117 123 125 125 123 131 140 138 128 116 115
71 71 72 72 72 71 71 71 71 70 68 68 76 81 85 91 95 96 95 95 92 88 86 85 92 101 108 111 116 121 127 125 127 143 144 141 130 124
66 67 67 66 66 65 64 65 64 64 64 63 69 76 79 86 92 96 96 94 91 87 82 80 83 91 100 107 110 115 121 125 124 135 150 150 139 139
64 62 61 59 59 58 60 61 61 60 61 60 62 67 71 76 82 86 86 87 85 83 80 76 78 85 93 101 107 110 114 120 122 126 138 149 151 153
56 55 54 54 54 56 56 56 58 57 56 54 55 60 62 63 67 71 71 74 76 75 74 72 70 76 86 95 102 106 111 116 119 121 130 142 148 150
51 51 51 51 51 51 52 52 52 53 52 50 54 58 59 60 60 64 66 65 69 69 67 69 68 74 83 89 95 99 104 113 118 120 124 132 141 148
43 43 46 46 44 46 47 46 46 47 48 50 54 56 56 57 58 60 62 64 65 64 63 65 63 69 76 86 90 91 97 107 113 116 121 128 134 142
36 39 41 39 37 39 40 39 42 44 47 48 51 52 52 53 53 55 59 60 62 60 60 63 62 67 70 78 85 87 90 101 109 114 117 124 128 135
33 35 35 35 35 36 36 38 40 42 42 42 44 45 47 47 47 50 53 54 56 56 59 59 61 62 65 72 78 84 88 93 103 111 115 121 126 132
32 32 33 34 34 35 34 35 37 38 38 38 38 39 41 43 43 46 50 52 52 54 54 56 58 60 64 70 75 80 87 93 96 104 111 118 123 128
32 32 33 33 33 33 32 31 33 34 35 33 32 32 33 34 37 40 43 48 50 50 50 54 56 59 62 67 72 76 81 90 95 98 105 112 118 122
32 32 33 31 31 30 30 30 30 31 32 32 32 30 30 30 32 34 38 42 45 47 48 51 53 54 59 63 68 72 76 83 89 93 96 103 112 118
30 30 30 29 29 27 28 29 28 28 28 29 30 29 28 28 28 30 32 36 41 45 44 44 48 52 56 59 62 67 72 77 82 88 93 96 101 111
27 28 27 27 26 26 27 28 27 26 26 27 27 27 28 27 26 27 27 31 34 39 42 43 45 49 54 56 59 64 71 74 78 82 87 93 97 102
24 25 24 23 24 25 26 26 27 24 24 25 24 23 23 23 25 26 26 25 30 34 38 41 43 48 51 55 58 61 66 72 76 79 82 87 93 99
22 22 21 22 23 25 26 25 25 23 22 23 21 21 21 19 21 24 27 27 28 29 34 37 40 43 46 50 53 57 63 68 72 76 80 84 87 91
23 23 22 23 23 24 25 24 23 21 21 20 20 20 19 18 18 18 22 25 26 26 29 33 37 39 42 46 49 53 56 62 68 72 76 78 83 87
24 24 23 23 23 24 24 23 22 21 20 19 19 19 19 18 17 16 15 18 22 25 26 29 33 36 40 43 47 51 55 57 62 68 72 76 79 84
22 22 22 22 22 23 23 23 22 22 21 20 20 20 20 19 17 17 17 17 17 20 23 25 28 33 37 42 45 49 52 55 58 61 67 72 77 80
19 21 21 22 22 23 22 23 22 22 21 20 20 21 21 19 18 17 17 17 18 18 19 23 26 30 33 37 40 44 49 52 55 58 61 66 72 77

GFSNE_250_spd_021.txt.gz
Wind_Speed
102 100 99 97 95 92 92 92 90 89 87 89 91 88 84 85 91 92 94 103 109 117 122 126 129 128 125 122 118 114 113 116 114 113 118 118 116 113
101 98 95 91 87 84 84 85 86 84 83 87 88 90 85 81 84 87 89 94 105 113 118 124 129 132 132 130 127 123 120 117 118 117 113 119 120 119
94 89 85 80 77 76 76 75 76 76 75 80 80 84 86 85 82 84 88 93 98 107 115 118 125 130 134 135 134 130 127 124 121 121 120 117 116 122
84 80 77 73 70 68 68 68 68 68 67 70 72 77 79 83 84 83 86 89 92 98 105 112 120 125 129 134 136 137 134 131 128 125 124 124 123 116
75 73 70 67 65 63 61 61 61 61 60 64 69 71 75 78 81 81 82 84 85 90 98 108 114 120 125 128 130 133 137 137 133 131 129 127 129 128
69 67 65 62 60 58 57 57 56 55 54 57 65 68 70 74 76 78 80 81 82 84 87 93 101 107 113 116 123 129 131 134 136 136 134 132 131 131
63 60 58 56 54 53 54 54 52 51 49 51 61 65 65 68 71 73 74 76 79 81 80 81 90 97 101 106 111 116 121 127 130 133 138 138 136 133
59 55 51 49 49 48 48 47 47 47 46 46 53 58 59 60 63 66 70 73 76 78 77 78 78 84 89 93 97 102 111 116 122 129 134 137 140 140
52 48 44 42 43 45 44 41 41 39 41 43 49 52 53 54 57 60 66 69 72 76 76 79 80 82 86 87 89 91 99 106 111 116 122 128 133 137
45 42 41 41 40 42 39 37 35 35 36 40 45 48 49 49 53 55 59 62 65 70 72 75 79 82 82 84 88 90 92 96 104 108 112 116 122 128
40 40 40 40 37 35 34 33 32 33 35 36 39 42 44 45 47 51 55 55 60 63 65 67 72 75 77 79 83 84 86 90 95 99 103 109 112 117
38 39 40 37 34 33 32 31 30 31 32 34 36 37 36 37 41 45 48 51 54 59 63 62 68 69 71 75 77 80 82 84 88 92 98 102 108 110
36 37 39 34 32 31 30 29 29 30 30 32 33 34 35 36 38 41 44 47 51 57 56 56 62 65 67 70 73 77 79 82 85 87 91 97 100 102
33 34 35 31 30 30 28 29 28 28 29 31 32 33 34 35 37 38 39 42 47 51 51 54 61 62 64 66 68 71 73 76 81 85 88 92 94 98
30 30 30 27 27 26 27 27 27 27 28 29 29 29 30 30 32 34 36 40 44 45 47 49 53 55 59 63 66 69 72 73 78 81 85 88 92 95
28 27 26 24 23 24 25 25 25 26 26 25 25 25 27 29 30 31 34 35 39 43 43 45 48 50 52 56 59 64 69 73 76 78 80 83 87 92
24 23 23 22 21 22 23 23 24 24 24 22 23 24 26 27 28 30 30 30 33 36 37 41 43 45 46 48 53 58 63 70 73 77 79 80 82 86
22 21 20 20 20 20 21 22 23 23 23 21 22 23 25 24 26 26 27 29 30 31 30 36 39 41 41 42 46 53 58 63 67 72 75 78 80 82
20 20 20 19 19 19 20 21 22 23 23 22 22 22 24 24 24 25 26 27 28 30 28 29 34 37 39 39 41 47 54 59 62 65 71 74 77 78
18 19 20 21 21 20 20 21 22 23 24 23 22 22 23 24 23 24 25 27 26 27 27 27 29 32 35 37 39 42 50 54 58 61 66 70 73 76
18 19 19 21 22 22 23 23 23 24 24 24 22 22 23 23 23 24 24 23 24 25 26 27 27 29 31 34 37 40 45 51 54 58 61 64 70 71
19 19 19 21 22 23 25 24 24 24 25 25 23 23 24 24 23 23 23 22 22 23 26 27 26 28 30 30 34 37 41 46 51 54 57 60 63 66
19 19 20 20 21 23 24 24 24 25 26 25 25 24 24 24 23 22 22 21 21 22 23 26 27 26 28 29 31 35 38 42 47 51 54 57 60 62

GFSNE_250_spd_024.txt.gz
Wind_Speed
105 101 98 97 94 91 89 87 83 80 78 83 83 84 87 86 89 88 87 92 96 99 110 118 121 125 128 126 125 127 118 117 119 119 120 116 114 110
104 102 99 93 87 81 78 76 73 71 68 74 74 78 83 87 87 86 86 83 91 99 103 114 121 124 128 131 129 128 129 126 120 122 122 123 120 117
101 93 87 82 78 74 71 69 68 65 62 69 69 72 76 80 83 83 83 82 83 91 101 108 116 121 127 132 135 134 131 130 131 124 125 126 127 124
90 84 80 77 73 70 66 64 61 61 59 62 65 68 70 74 76 78 80 80 82 86 91 100 109 118 125 130 136 137 137 135 132 133 128 126 128 129
82 79 75 70 66 63 60 57 55 55 53 55 61 63 65 69 70 71 73 77 82 88 90 92 100 108 120 127 132 136 135 136 135 133 134 131 128 129
75 72 68 64 61 59 55 53 51 50 50 51 56 58 58 60 62 65 67 70 77 85 90 91 91 99 108 119 126 131 136 135 136 138 136 136 137 133
67 63 60 58 56 54 51 50 49 48 46 49 52 51 54 53 53 56 61 65 70 77 83 88 90 92 100 110 119 126 129 133 135 137 140 140 138 139
61 59 54 52 50 49 48 47 47 45 45 47 48 48 50 49 50 50 53 61 64 69 78 84 87 88 91 97 106 113 119 125 132 138 138 140 143 142
55 51 50 48 45 45 45 43 41 39 40 42 46 44 46 47 45 46 50 54 59 64 68 75 80 82 86 90 96 102 108 112 121 128 135 138 139 143
49 47 46 48 43 39 40 37 36 33 35 40 42 39 40 39 43 44 46 49 55 61 62 68 73 77 81 84 89 94 98 101 105 112 122 129 134 137
46 43 43 45 41 35 37 35 32 32 35 35 35 36 37 36 39 43 44 46 51 56 58 62 69 72 76 81 85 89 90 91 94 99 107 116 125 132
44 42 40 40 37 34 34 32 31 31 30 31 31 31 32 32 34 37 41 43 46 52 52 56 65 68 73 78 82 85 86 87 89 93 96 102 109 115
38 37 36 34 32 31 32 30 29 28 28 28 29 28 28 29 31 34 36 39 43 47 47 53 61 65 69 73 78 82 84 87 88 90 93 95 99 102
34 32 30 28 26 26 28 27 27 26 26 27 27 27 27 28 29 32 33 37 40 42 44 50 57 60 64 70 73 75 79 83 86 89 92 94 96 97
31 29 27 24 22 23 23 24 25 24 25 26 26 26 27 28 29 30 32 36 39 41 44 48 52 54 58 63 67 71 74 76 79 84 90 92 94 95
29 26 23 21 20 20 21 23 22 23 25 26 26 26 26 27 28 28 29 32 35 37 40 44 48 50 53 57 61 64 66 71 75 79 81 84 89 93
25 23 21 19 18 18 20 21 22 23 24 24 24 24 25 25 25 27 29 30 33 35 38 40 42 44 46 51 54 56 60 64 69 73 77 79 81 85
23 22 21 19 18 18 18 19 21 23 23 23 22 23 23 23 25 28 28 30 31 33 34 34 37 40 41 44 45 48 53 58 64 69 73 75 76 78
20 19 18 18 18 19 19 19 21 22 22 22 22 22 22 24 26 27 27 28 29 29 31 31 31 34 36 39 40 42 46 52 58 64 67 69 70 74
19 18 18 18 19 20 20 21 22 22 23 23 22 22 23 25 26 26 25 26 26 26 28 30 30 28 31 35 38 39 41 45 51 57 62 64 64 69
18 18 19 19 20 21 22 23 24 24 24 24 24 24 25 26 26 26 25 26 25 24 26 29 29 28 29 31 34 37 39 41 45 50 55 59 60 63
19 19 19 20 20 21 23 24 25 25 25 26 27 27 26 26 26 26 26 26 25 24 25 26 27 28 28 29 31 35 37 40 42 46 50 53 55 58
20 20 20 20 21 21 22 24 25 26 27 28 28 28 28 27 27 27 27 26 25 26 25 26 27 28 28 29 30 33 35 38 40 42 46 49 51 53

GFSNE_250_spd_027.txt.gz
Wind_Speed
104 99 94 91 89 88 85 82 75 73 73 82 83 85 85 87 87 85 88 93 96 93 104 109 113 113 118 122 124 124 123 123 124 122 120 117 113 111
99 94 91 87 83 81 77 73 66 66 68 72 75 78 81 82 84 86 87 92 94 93 95 101 106 109 115 125 128 129 129 125 127 128 127 123 120 118
90 87 85 79 75 72 70 67 63 60 62 71 69 71 74 76 78 80 83 85 90 92 93 95 103 110 114 120 128 131 132 132 129 130 131 131 128 124
80 79 77 73 70 66 63 62 58 56 54 63 66 66 67 69 71 72 74 79 82 88 91 95 101 103 107 111 122 130 135 136 136 134 134 136 133 130
73 71 69 67 65 61 57 56 54 53 53 57 62 60 60 62 63 66 67 71 75 79 84 88 97 97 101 108 114 126 133 138 138 140 137 137 139 138
68 64 62 61 59 57 54 54 53 51 50 52 58 57 55 56 57 58 61 64 67 72 77 81 89 101 101 103 110 114 126 135 138 140 143 141 139 141
65 64 61 58 55 51 50 50 47 45 45 47 50 51 51 51 50 52 55 57 62 65 70 75 83 93 98 99 104 111 118 129 136 139 143 145 147 143
63 62 59 55 51 47 45 45 42 40 39 39 42 44 43 44 45 47 51 53 57 61 65 72 78 86 96 99 100 105 111 120 127 133 138 141 146 148
56 54 53 49 46 42 40 41 37 36 36 36 39 37 39 40 41 43 44 48 53 58 61 68 75 80 88 96 98 100 103 110 118 125 131 135 140 146
52 49 48 47 42 40 39 38 35 36 36 35 36 35 38 35 38 40 42 46 51 55 56 63 69 75 81 88 93 95 98 102 106 115 125 129 133 138
46 43 43 44 40 38 37 36 35 34 33 33 32 32 34 34 37 38 39 43 47 49 50 57 63 70 75 80 87 92 94 98 101 104 113 121 127 132
45 40 38 37 34 33 32 32 33 31 29 29 29 29 30 31 34 35 37 40 43 44 44 56 61 65 70 76 80 86 90 92 96 101 104 108 115 119
40 36 33 30 29 28 27 27 27 27 27 27 26 26 27 28 30 32 34 36 39 41 44 51 55 59 66 70 74 78 83 87 89 92 99 102 105 107
34 31 29 27 25 25 24 23 23 25 25 25 25 24 24 25 27 29 30 32 34 36 42 48 52 55 60 66 69 73 78 81 84 87 91 95 99 101
32 29 26 24 23 22 21 21 22 22 23 23 23 23 23 23 24 26 28 30 32 34 37 42 48 51 55 59 61 67 72 76 80 82 85 89 93 93
30 28 25 22 20 19 19 20 20 20 21 22 22 22 22 23 24 26 28 30 32 35 38 41 43 44 48 54 57 59 64 70 74 78 82 85 87 88
27 26 23 21 20 19 18 18 18 19 20 21 21 22 23 24 24 26 28 29 31 34 36 39 42 42 44 46 51 56 59 63 67 70 75 80 84 85
25 24 21 19 19 18 17 17 18 19 20 21 22 23 24 24 24 25 27 28 30 31 33 36 38 39 40 43 46 51 55 58 61 64 67 71 75 79
24 22 19 17 17 17 17 18 19 20 21 22 23 24 24 25 25 25 26 27 29 30 32 33 35 36 36 39 41 45 49 52 55 59 64 65 67 71
24 22 19 17 17 17 18 19 20 21 22 23 24 24 25 25 26 26 27 27 29 30 31 30 31 31 30 32 37 40 43 45 49 54 58 62 64 66
25 22 20 18 17 18 19 21 22 24 25 26 26 26 26 27 28 28 28 28 28 29 29 29 30 30 30 31 33 37 40 41 43 47 52 57 62 63
25 22 21 20 19 19 20 21 23 25 27 27 28 28 28 29 29 29 29 29 29 29 28 29 30 30 30 30 32 33 37 37 39 42 46 51 56 60
25 23 22 21 21 21 21 22 23 25 27 28 29 30 30 30 30 31 31 30 30 30 30 30 30 30 31 32 30 31 33 36 37 39 42 45 49 53

GFSNE_250_spd_030.txt.gz
Wind_Speed
103 99 94 92 90 87 84 80 76 76 76 85 88 90 92 93 95 95 95 99 104 106 107 108 112 114 121 125 125 128 128 126 125 123 124 120 120 113
93 90 87 83 80 79 76 74 72 69 67 77 86 87 88 89 91 93 96 98 101 104 106 107 108 108 116 120 123 127 130 131 131 130 128 127 124 123
85 82 80 77 74 71 67 65 64 63 59 68 77 80 78 80 82 85 89 93 95 100 104 106 107 106 109 110 111 120 127 133 136 137 134 132 131 129
78 74 71 68 66 63 59 59 58 57 55 62 69 73 72 72 76 78 79 82 86 90 98 103 107 107 103 105 110 113 118 126 135 140 140 137 136 133
72 68 65 62 60 59 56 55 55 53 50 53 61 62 64 64 66 70 73 74 77 80 85 93 101 104 103 105 105 109 112 117 128 137 142 144 142 138
67 64 61 57 56 56 56 54 52 51 49 48 54 56 57 58 59 62 65 67 70 75 79 82 87 94 100 105 107 104 106 109 120 131 140 144 147 145
63 59 57 55 53 51 50 50 49 47 46 45 49 51 53 55 52 54 59 60 64 68 73 77 81 85 91 99 104 107 102 104 112 122 133 143 148 151
59 57 54 51 48 47 45 45 44 42 42 40 44 48 50 47 48 49 54 57 59 62 66 70 75 79 84 91 99 106 105 101 103 113 120 132 145 149
53 53 52 49 46 44 42 41 41 40 38 37 43 45 44 45 44 48 50 52 55 57 62 66 69 75 80 85 91 98 103 105 104 108 116 123 134 146
52 51 50 47 44 42 40 37 38 36 37 38 40 38 38 37 42 43 47 51 51 51 56 60 61 68 74 79 85 90 96 103 105 107 110 118 127 137
48 47 45 42 39 39 37 34 33 33 32 33 32 33 35 35 36 40 40 44 46 45 48 56 59 63 67 73 79 85 91 98 101 103 106 112 120 127
44 43 41 39 36 33 31 30 29 28 27 27 29 31 31 31 33 33 37 39 39 40 46 56 54 58 64 69 73 79 85 91 95 98 101 104 110 119
41 38 35 32 30 28 26 25 24 24 24 25 26 27 27 28 29 31 33 36 37 40 43 47 50 56 60 62 66 72 77 83 87 89 92 98 104 109
38 35 31 28 26 25 23 22 21 21 21 22 23 24 25 26 27 29 31 33 35 37 39 42 45 50 56 58 60 64 70 75 80 84 86 89 95 100
36 33 29 26 24 22 21 20 19 19 19 20 21 22 23 24 25 26 29 31 33 35 37 40 42 45 50 54 55 57 62 67 72 76 78 81 86 92
32 29 27 23 22 20 19 18 17 17 17 18 20 21 22 23 24 25 27 29 32 34 35 38 40 42 47 49 50 52 57 61 65 68 72 75 78 82
31 28 24 22 20 19 18 17 17 17 17 18 19 20 21 22 23 25 27 28 30 32 33 34 36 38 41 42 44 46 51 55 59 63 67 69 72 74
28 25 23 21 20 18 17 17 17 17 17 18 19 20 21 22 23 24 25 27 30 32 33 35 36 37 39 40 41 42 44 48 54 57 60 64 66 69
27 24 23 21 20 18 17 18 18 18 18 19 20 21 22 22 22 23 25 27 28 30 31 32 32 33 35 37 38 40 43 45 48 51 54 57 59 64
28 25 22 21 20 19 19 19 20 21 20 21 21 22 22 23 24 24 26 27 27 28 29 30 31 31 33 34 34 36 40 42 44 48 50 52 54 59
28 25 22 21 20 20 21 21 22 23 23 24 24 24 24 25 25 26 27 27 27 28 29 30 31 31 32 33 33 35 37 40 41 44 46 48 51 55
27 25 23 21 20 21 22 23 24 24 25 26 26 27 27 28 28 28 29 29 29 29 30 30 31 31 31 33 34 34 35 38 40 42 43 44 47 50
27 25 24 22 21 21 23 24 26 26 26 27 28 29 29 30 30 31 31 31 32 32 31 31 32 32 32 32 33 33 33 35 37 39 41 42 44 47

GFSNE_250_spd_033.txt.gz
Wind_Speed
115 109 102 97 93 89 85 81 76 74 75 86 88 87 88 89 90 93 95 98 101 104 106 108 112 118 111 114 117 121 123 121 121 118 114 114 113 108
106 100 93 87 83 79 75 71 69 67 64 74 83 80 80 83 86 89 93 96 100 102 105 107 108 110 109 111 115 119 125 125 126 125 124 120 118 117
92 89 84 77 73 70 68 66 64 61 59 65 74 74 75 76 78 81 85 91 97 101 104 108 108 110 109 110 114 112 119 126 128 130 129 129 126 123
78 76 74 71 68 67 65 64 62 60 55 58 65 69 68 70 73 74 76 80 87 94 100 106 109 111 111 112 110 109 110 120 128 129 134 134 133 131
72 69 67 66 64 62 60 59 58 56 53 53 61 63 63 65 66 68 69 72 77 83 91 100 106 110 112 112 107 111 111 115 118 126 133 139 138 139
67 64 62 61 59 58 56 55 53 52 50 48 53 57 59 60 61 61 60 65 70 76 81 87 96 103 109 111 108 109 110 110 112 116 126 135 142 144
64 61 59 57 56 54 53 52 51 49 45 43 47 51 56 56 55 54 54 55 64 70 74 79 85 91 98 105 108 109 109 108 110 107 114 126 139 146
62 59 57 55 52 49 47 47 48 48 45 41 42 47 50 50 50 51 52 53 58 64 68 72 78 84 89 93 100 105 108 109 107 108 108 116 128 142
58 57 55 52 48 44 41 40 40 42 45 41 42 43 45 42 41 47 51 51 55 60 64 68 71 77 81 85 89 93 99 105 107 106 111 112 116 129
57 55 53 50 46 42 39 37 35 36 38 38 36 37 41 39 41 43 45 47 49 49 57 63 64 68 69 74 80 86 90 95 100 105 109 110 113 119
51 48 47 45 42 38 36 34 32 31 31 32 32 33 38 38 38 38 37 42 43 43 49 56 57 62 63 67 72 77 83 88 91 96 100 106 107 110
46 44 42 41 39 36 33 31 28 26 26 26 28 29 32 34 35 34 37 37 38 39 43 53 50 57 60 61 65 70 75 79 84 88 92 98 105 105
46 43 40 37 34 31 29 27 24 23 22 22 23 25 26 27 29 31 33 35 36 39 42 44 47 53 54 56 58 63 68 72 76 80 84 89 95 98
44 39 36 33 30 26 24 22 20 19 19 18 19 21 23 26 28 29 30 31 33 35 37 40 42 47 50 52 54 58 63 67 71 75 79 82 86 90
40 36 33 30 27 23 21 19 18 16 16 16 17 19 21 22 24 26 27 29 31 32 33 35 38 41 45 47 51 54 58 60 65 68 70 74 78 82
37 34 31 27 25 21 19 17 16 15 15 15 15 16 18 19 21 23 24 26 28 28 29 31 33 37 40 43 47 49 52 55 57 60 62 68 72 76
34 32 29 25 22 20 18 17 15 15 15 14 14 15 17 18 19 21 22 23 25 26 28 29 31 33 35 37 39 43 46 49 52 54 57 59 62 68
33 31 28 25 22 19 18 17 15 15 15 15 15 15 16 17 18 20 22 23 25 26 27 29 30 31 33 34 35 36 39 43 47 49 50 53 56 59
32 29 27 24 22 19 17 17 17 16 16 16 17 16 17 19 20 22 24 26 26 27 28 29 30 30 31 33 34 35 36 38 41 44 47 48 49 53
30 28 26 24 22 20 18 18 18 18 18 18 19 19 20 21 22 23 25 26 27 27 28 29 30 32 32 32 33 33 34 36 39 41 44 45 47 51
30 27 25 24 23 22 20 19 19 20 20 20 21 22 23 23 24 25 26 27 27 28 29 29 29 30 30 30 32 33 32 33 36 39 40 43 46 48
29 27 26 25 23 22 22 21 21 22 22 23 23 24 24 26 26 27 27 28 29 29 30 30 30 30 31 31 31 31 32 31 33 36 38 41 43 46
29 27 27 25 24 23 22 23 22 23 24 25 26 26 26 27 28 29 29 30 30 31 31 31 32 32 33 32 32 32 32 33 33 35 37 39 42 44

GFSNE_250_spd_036.txt.gz
Wind_Speed
113 111 105 102 98 95 89 83 77 74 77 78 79 79 77 76 80 85 90 92 92 95 101 105 107 112 117 120 118 125 122 122 123 118 113 108 103 101
102 96 93 91 89 85 82 78 73 69 67 73 74 75 74 72 71 78 82 87 87 89 92 98 104 108 111 114 116 113 118 123 124 125 121 116 111 108
92 89 85 81 80 77 75 72 68 64 61 68 72 71 69 67 66 70 76 78 81 84 87 92 97 103 107 111 114 109 114 119 118 123 128 126 120 116
84 81 77 74 73 71 68 67 64 62 57 59 68 68 65 64 63 63 67 71 74 78 81 87 92 96 100 104 108 108 110 114 114 116 125 130 126 122
77 73 71 70 68 64 62 61 59 58 54 53 61 62 61 61 60 61 61 64 66 70 75 80 86 92 97 100 102 103 105 108 110 115 120 130 133 130
72 69 66 63 61 60 58 57 54 53 51 49 52 56 57 57 56 57 57 58 62 64 68 74 80 86 93 97 97 99 97 100 107 112 117 125 130 132
67 64 63 60 58 57 55 54 52 51 49 47 48 49 53 54 51 52 56 57 60 62 64 67 72 79 86 93 96 97 97 101 101 106 112 121 125 130
64 65 61 57 54 52 50 48 49 49 49 48 45 44 45 48 48 47 51 55 59 59 61 64 67 72 79 86 92 93 94 98 98 102 106 109 113 122
61 59 57 53 51 48 46 43 42 42 43 43 43 40 40 41 44 45 46 49 54 54 58 62 63 66 72 78 83 88 90 92 96 99 100 101 107 115
56 55 54 52 49 47 44 40 37 35 35 36 37 37 37 38 42 41 40 44 48 48 54 59 60 63 66 72 77 83 88 90 93 96 98 99 104 110
53 52 50 47 45 43 41 38 34 32 30 28 28 30 31 33 35 36 36 40 40 40 49 54 57 60 60 64 71 76 80 84 87 88 89 93 100 103
53 50 46 44 42 40 37 35 32 30 27 26 25 24 25 27 29 31 34 34 33 35 44 43 47 53 55 57 62 69 73 77 82 84 85 87 94 97
52 48 43 41 39 36 34 32 28 26 24 23 22 22 22 23 25 28 30 31 33 36 39 39 42 46 47 49 56 61 66 71 74 78 82 86 88 93
48 44 40 38 36 34 31 28 25 22 21 20 19 20 21 21 22 25 27 30 32 32 33 36 38 42 44 47 51 57 61 66 70 73 77 80 85 87
45 41 39 35 33 31 28 25 22 20 19 17 17 17 18 19 20 22 25 27 28 29 31 32 34 37 40 43 45 49 53 59 63 66 69 72 75 79
40 39 38 34 32 29 25 22 19 18 17 16 15 15 16 18 19 20 22 24 25 26 27 29 31 34 37 40 41 44 48 52 56 60 64 67 69 73
38 37 36 34 30 28 25 21 18 16 16 15 14 14 15 16 19 20 21 22 22 23 24 26 29 31 34 36 38 40 43 45 48 52 55 58 60 63
36 35 36 33 29 27 24 21 18 16 15 15 15 15 15 16 17 19 20 21 22 22 23 24 26 28 30 32 35 37 39 41 44 46 49 51 54 57
36 35 34 32 29 26 23 22 19 17 15 16 16 15 15 16 17 18 19 20 21 22 23 23 24 25 27 29 31 33 35 38 40 42 45 46 49 53
36 35 33 31 28 26 24 22 21 19 18 17 17 17 17 17 18 19 20 21 22 22 23 24 25 26 28 29 30 32 34 36 38 40 42 42 44 48
36 34 32 30 28 26 25 23 21 20 19 20 19 20 20 20 21 21 22 23 24 24 25 26 26 27 28 28 29 31 33 35 36 38 40 42 43 45
35 35 32 30 29 28 26 24 22 21 21 21 22 22 22 23 24 24 25 25 26 26 27 27 27 28 28 28 28 29 30 32 34 36 38 40 43 45
31 32 33 31 30 28 27 25 23 22 23 22 22 24 25 25 26 27 27 28 28 29 30 30 29 30 30 30 30 30 31 32 33 34 36 38 41 43